Time,TemperatureF,DewpointF,PressureIn,WindDirection,WindDirectionDegrees,WindSpeedMPH,WindSpeedGustMPH,Humidity,HourlyPrecipIn,Conditions,Clouds,dailyrainin,SoftwareType,DateUTC
2013-06-11 00:02:00,52.0,33.9,-100.00,North,349,0.0,0.0,50,0.00,,,0.00,VWS V14.01,2013-06-11 07:02:00,
2013-06-11 00:07:00,51.6,33.6,-100.00,North,349,0.0,0.0,50,0.00,,,0.00,VWS V14.01,2013-06-11 07:07:00,
2013-06-11 00:12:00,51.3,33.3,-100.00,North,349,0.0,0.0,50,0.00,,,0.00,VWS V14.01,2013-06-11 07:12:00,
2013-06-11 00:17:00,50.9,33.4,-100.00,North,349,0.0,0.0,51,0.00,,,0.00,VWS V14.01,2013-06-11 07:17:00,
2013-06-11 00:22:00,50.5,34.1,-100.00,North,349,0.0,0.0,53,0.00,,,0.00,VWS V14.01,2013-06-11 07:22:00,
2013-06-11 00:27:00,50.2,33.7,-100.00,North,349,0.0,0.0,53,0.00,,,0.00,VWS V14.01,2013-06-11 07:27:00,
2013-06-11 00:32:00,49.8,33.9,-100.00,North,349,0.0,0.0,54,0.00,,,0.00,VWS V14.01,2013-06-11 07:32:00,
2013-06-11 00:37:00,49.5,33.5,-100.00,North,349,0.0,0.0,54,0.00,,,0.00,VWS V14.01,2013-06-11 07:37:00,
2013-06-11 00:42:00,49.1,33.7,-100.00,North,349,0.0,0.0,55,0.00,,,0.00,VWS V14.01,2013-06-11 07:42:00,
2013-06-11 00:47:00,48.7,33.3,-100.00,North,349,0.0,0.0,55,0.00,,,0.00,VWS V14.01,2013-06-11 07:47:00,
2013-06-11 00:52:00,48.4,33.9,-100.00,North,349,0.0,0.0,57,0.00,,,0.00,VWS V14.01,2013-06-11 07:52:00,
2013-06-11 00:57:00,48.6,34.0,-100.00,NW,324,0.0,0.0,57,0.00,,,0.00,VWS V14.01,2013-06-11 07:57:00,
2013-06-11 01:02:00,48.6,34.5,-100.00,NW,324,0.0,0.0,58,0.00,,,0.00,VWS V14.01,2013-06-11 08:02:00,
2013-06-11 01:07:00,48.6,34.5,-100.00,NW,324,0.0,0.0,58,0.00,,,0.00,VWS V14.01,2013-06-11 08:07:00,
2013-06-11 01:12:00,48.6,34.5,-100.00,East,93,0.0,0.0,58,0.00,,,0.00,VWS V14.01,2013-06-11 08:12:00,
2013-06-11 01:17:00,49.1,34.5,-100.00,WNW,286,0.0,0.0,57,0.00,,,0.00,VWS V14.01,2013-06-11 08:17:00,
2013-06-11 01:22:00,49.5,34.9,-100.00,WNW,286,0.0,0.0,57,0.00,,,0.00,VWS V14.01,2013-06-11 08:22:00,
2013-06-11 01:27:00,49.3,34.3,-100.00,WNW,296,0.0,0.0,56,0.00,,,0.00,VWS V14.01,2013-06-11 08:27:00,
2013-06-11 01:32:00,49.1,34.1,-100.00,WNW,296,0.0,0.0,56,0.00,,,0.00,VWS V14.01,2013-06-11 08:32:00,
2013-06-11 01:37:00,48.9,33.9,-100.00,NNE,15,0.0,0.0,56,0.00,,,0.00,VWS V14.01,2013-06-11 08:37:00,
2013-06-11 01:42:00,48.7,34.2,-100.00,NNE,15,0.0,0.0,57,0.00,,,0.00,VWS V14.01,2013-06-11 08:42:00,
2013-06-11 01:47:00,48.7,35.1,-100.00,NNE,15,0.0,0.0,59,0.00,,,0.00,VWS V14.01,2013-06-11 08:47:00,
2013-06-11 01:52:00,48.7,34.6,-100.00,NNE,15,0.0,0.0,58,0.00,,,0.00,VWS V14.01,2013-06-11 08:52:00,
2013-06-11 01:57:00,48.6,34.5,-100.00,NNE,15,0.0,0.0,58,0.00,,,0.00,VWS V14.01,2013-06-11 08:57:00,
2013-06-11 02:02:00,48.2,35.0,-100.00,NNE,15,0.0,0.0,60,0.00,,,0.00,VWS V14.01,2013-06-11 09:02:00,
2013-06-11 02:07:00,48.0,34.8,-100.00,NNE,15,0.0,0.0,60,0.00,,,0.00,VWS V14.01,2013-06-11 09:07:00,
2013-06-11 02:12:00,48.0,34.4,-100.00,NNE,15,0.0,0.0,59,0.00,,,0.00,VWS V14.01,2013-06-11 09:12:00,
2013-06-11 02:17:00,48.0,34.4,-100.00,NNE,15,0.0,0.0,59,0.00,,,0.00,VWS V14.01,2013-06-11 09:17:00,
2013-06-11 02:22:00,48.0,34.4,-100.00,NNE,15,0.0,0.0,59,0.00,,,0.00,VWS V14.01,2013-06-11 09:22:00,
2013-06-11 02:27:00,47.8,34.2,-100.00,NNE,15,0.0,0.0,59,0.00,,,0.00,VWS V14.01,2013-06-11 09:27:00,
2013-06-11 02:32:00,47.5,34.3,-100.00,NNE,15,0.0,0.0,60,0.00,,,0.00,VWS V14.01,2013-06-11 09:32:00,
2013-06-11 02:37:00,47.3,33.7,-100.00,NNE,15,0.0,0.0,59,0.00,,,0.00,VWS V14.01,2013-06-11 09:37:00,
2013-06-11 02:42:00,46.8,33.6,-100.00,NNE,15,0.0,0.0,60,0.00,,,0.00,VWS V14.01,2013-06-11 09:42:00,
2013-06-11 02:47:00,46.4,33.3,-100.00,NNE,15,0.0,0.0,60,0.00,,,0.00,VWS V14.01,2013-06-11 09:47:00,
2013-06-11 02:52:00,46.0,33.8,-100.00,NNE,15,0.0,0.0,62,0.00,,,0.00,VWS V14.01,2013-06-11 09:52:00,
2013-06-11 02:57:00,45.7,33.8,-100.00,NNE,15,0.0,0.0,63,0.00,,,0.00,VWS V14.01,2013-06-11 09:57:00,
2013-06-11 03:02:00,45.3,33.5,-100.00,WNW,289,0.0,0.0,63,0.00,,,0.00,VWS V14.01,2013-06-11 10:02:00,
2013-06-11 03:07:00,45.5,34.0,-100.00,WSW,254,0.0,3.1,64,0.00,,,0.00,VWS V14.01,2013-06-11 10:07:00,
2013-06-11 03:12:00,46.2,34.7,-100.00,WSW,257,0.0,3.1,64,0.00,,,0.00,VWS V14.01,2013-06-11 10:12:00,
2013-06-11 03:17:00,46.9,34.6,-100.00,WSW,257,0.0,3.1,62,0.00,,,0.00,VWS V14.01,2013-06-11 10:17:00,
2013-06-11 03:22:00,47.1,34.4,-100.00,WSW,257,0.0,3.1,61,0.00,,,0.00,VWS V14.01,2013-06-11 10:22:00,
2013-06-11 03:27:00,47.1,34.4,-100.00,WSW,253,3.6,5.4,61,0.00,,,0.00,VWS V14.01,2013-06-11 10:27:00,
2013-06-11 03:32:00,48.0,34.0,-100.00,NW,305,0.0,5.4,58,0.00,,,0.00,VWS V14.01,2013-06-11 10:32:00,
2013-06-11 03:37:00,48.4,33.4,-100.00,NW,307,0.0,5.4,56,0.00,,,0.00,VWS V14.01,2013-06-11 10:37:00,
2013-06-11 03:42:00,48.4,33.4,-100.00,ENE,66,0.0,5.4,56,0.00,,,0.00,VWS V14.01,2013-06-11 10:42:00,
2013-06-11 03:47:00,48.2,33.3,-100.00,SSW,209,0.0,5.4,56,0.00,,,0.00,VWS V14.01,2013-06-11 10:47:00,
2013-06-11 03:52:00,48.0,33.5,-100.00,SW,224,0.0,5.4,57,0.00,,,0.00,VWS V14.01,2013-06-11 10:52:00,
2013-06-11 03:57:00,47.8,33.4,-100.00,NW,311,0.0,5.4,57,0.00,,,0.00,VWS V14.01,2013-06-11 10:57:00,
2013-06-11 04:02:00,48.4,33.4,-100.00,SW,227,0.0,2.7,56,0.00,,,0.00,VWS V14.01,2013-06-11 11:02:00,
2013-06-11 04:07:00,48.7,33.3,-100.00,WSW,250,0.0,2.7,55,0.00,,,0.00,VWS V14.01,2013-06-11 11:07:00,
2013-06-11 04:12:00,48.7,33.3,-100.00,West,263,0.0,2.7,55,0.00,,,0.00,VWS V14.01,2013-06-11 11:12:00,
2013-06-11 04:17:00,48.6,33.1,-100.00,WSW,256,0.0,2.7,55,0.00,,,0.00,VWS V14.01,2013-06-11 11:17:00,
2013-06-11 04:22:00,48.2,32.8,-100.00,WNW,286,0.0,2.7,55,0.00,,,0.00,VWS V14.01,2013-06-11 11:22:00,
2013-06-11 04:27:00,47.8,32.9,-100.00,WNW,288,0.0,3.6,56,0.00,,,0.00,VWS V14.01,2013-06-11 11:27:00,
2013-06-11 04:32:00,48.0,33.1,-100.00,NNW,345,0.0,3.6,56,0.00,,,0.00,VWS V14.01,2013-06-11 11:32:00,
2013-06-11 04:37:00,48.0,33.1,-100.00,West,264,2.2,4.0,56,0.00,,,0.00,VWS V14.01,2013-06-11 11:37:00,
2013-06-11 04:42:00,48.0,33.1,-100.00,North,0,0.0,4.0,56,0.00,,,0.00,VWS V14.01,2013-06-11 11:42:00,
2013-06-11 04:47:00,48.2,32.8,-100.00,West,276,0.0,4.0,55,0.00,,,0.00,VWS V14.01,2013-06-11 11:47:00,
2013-06-11 04:52:00,48.6,32.7,-100.00,WNW,297,2.7,5.4,54,0.00,,,0.00,VWS V14.01,2013-06-11 11:52:00,
2013-06-11 04:57:00,48.7,32.4,-100.00,West,271,2.2,5.8,53,0.00,,,0.00,VWS V14.01,2013-06-11 11:57:00,
2013-06-11 05:02:00,48.9,32.6,-100.00,WNW,284,6.7,7.6,53,0.00,,,0.00,VWS V14.01,2013-06-11 12:02:00,
2013-06-11 05:07:00,48.9,32.6,-100.00,West,278,3.1,8.3,53,0.00,,,0.00,VWS V14.01,2013-06-11 12:07:00,
2013-06-11 05:12:00,48.7,32.4,-100.00,WNW,301,0.0,8.3,53,0.00,,,0.00,VWS V14.01,2013-06-11 12:12:00,
2013-06-11 05:17:00,48.7,31.9,-100.00,WNW,301,0.0,8.3,52,0.00,,,0.00,VWS V14.01,2013-06-11 12:17:00,
2013-06-11 05:22:00,48.7,31.9,-100.00,West,278,0.0,8.3,52,0.00,,,0.00,VWS V14.01,2013-06-11 12:22:00,
2013-06-11 05:27:00,48.9,32.1,-100.00,SSW,207,0.0,8.3,52,0.00,,,0.00,VWS V14.01,2013-06-11 12:27:00,
2013-06-11 05:32:00,48.9,32.1,-100.00,West,279,3.6,8.3,52,0.00,,,0.00,VWS V14.01,2013-06-11 12:32:00,
2013-06-11 05:37:00,48.9,32.1,-100.00,SSW,208,0.0,8.3,52,0.00,,,0.00,VWS V14.01,2013-06-11 12:37:00,
2013-06-11 05:42:00,49.1,31.8,-100.00,NNW,346,0.0,8.3,51,0.00,,,0.00,VWS V14.01,2013-06-11 12:42:00,
2013-06-11 05:47:00,49.3,31.9,-100.00,West,276,0.0,8.3,51,0.00,,,0.00,VWS V14.01,2013-06-11 12:47:00,
2013-06-11 05:52:00,49.3,32.4,-100.00,WNW,298,2.7,8.3,52,0.00,,,0.00,VWS V14.01,2013-06-11 12:52:00,
2013-06-11 05:57:00,49.3,31.9,-100.00,SW,228,2.7,8.3,51,0.00,,,0.00,VWS V14.01,2013-06-11 12:57:00,
2013-06-11 06:02:00,49.5,32.1,-100.00,SSW,212,0.0,0.0,51,0.00,,,0.00,VWS V14.01,2013-06-11 13:02:00,
2013-06-11 06:07:00,49.5,32.1,-100.00,SW,216,0.0,0.0,51,0.00,,,0.00,VWS V14.01,2013-06-11 13:07:00,
2013-06-11 06:12:00,49.5,32.1,-100.00,WSW,242,2.2,4.0,51,0.00,,,0.00,VWS V14.01,2013-06-11 13:12:00,
2013-06-11 06:17:00,49.8,32.4,-100.00,West,274,4.0,5.8,51,0.00,,,0.00,VWS V14.01,2013-06-11 13:17:00,
2013-06-11 06:22:00,50.0,32.1,-100.00,WSW,258,2.2,5.8,50,0.00,,,0.00,VWS V14.01,2013-06-11 13:22:00,
2013-06-11 06:27:00,50.4,31.9,-100.00,SW,224,5.4,5.8,49,0.00,,,0.00,VWS V14.01,2013-06-11 13:27:00,
2013-06-11 06:32:00,50.9,31.9,-100.00,WNW,286,3.6,7.2,48,0.00,,,0.00,VWS V14.01,2013-06-11 13:32:00,
2013-06-11 06:37:00,51.4,31.9,-100.00,NW,315,4.0,8.1,47,0.00,,,0.00,VWS V14.01,2013-06-11 13:37:00,
2013-06-11 06:42:00,51.6,31.5,-100.00,NW,312,0.0,8.1,46,0.00,,,0.00,VWS V14.01,2013-06-11 13:42:00,
2013-06-11 06:47:00,51.8,31.7,-100.00,West,277,2.2,8.1,46,0.00,,,0.00,VWS V14.01,2013-06-11 13:47:00,
2013-06-11 06:52:00,52.3,31.6,-100.00,West,266,3.6,8.1,45,0.00,,,0.00,VWS V14.01,2013-06-11 13:52:00,
2013-06-11 06:57:00,52.3,31.1,-100.00,West,265,4.0,8.1,44,0.00,,,0.00,VWS V14.01,2013-06-11 13:57:00,
2013-06-11 07:02:00,52.3,31.1,-100.00,WSW,256,5.4,8.7,44,0.00,,,0.00,VWS V14.01,2013-06-11 14:02:00,
2013-06-11 07:07:00,52.2,30.9,-100.00,WNW,291,3.6,8.7,44,0.00,,,0.00,VWS V14.01,2013-06-11 14:07:00,
2013-06-11 07:12:00,52.3,30.0,-100.00,WNW,282,5.4,8.7,42,0.00,,,0.00,VWS V14.01,2013-06-11 14:12:00,
2013-06-11 07:17:00,52.2,29.8,-100.00,West,270,3.1,8.7,42,0.00,,,0.00,VWS V14.01,2013-06-11 14:17:00,
2013-06-11 07:22:00,52.0,29.6,-100.00,WNW,290,2.7,8.7,42,0.00,,,0.00,VWS V14.01,2013-06-11 14:22:00,
2013-06-11 07:27:00,51.6,29.3,-100.00,SW,231,3.1,8.7,42,0.00,,,0.00,VWS V14.01,2013-06-11 14:27:00,
2013-06-11 07:32:00,51.4,29.7,-100.00,West,274,3.6,10.5,43,0.00,,,0.00,VWS V14.01,2013-06-11 14:32:00,
2013-06-11 07:37:00,51.4,29.7,-100.00,SSE,158,5.8,10.5,43,0.00,,,0.00,VWS V14.01,2013-06-11 14:37:00,
2013-06-11 07:42:00,52.2,29.8,-100.00,NNW,337,6.3,10.5,42,0.00,,,0.00,VWS V14.01,2013-06-11 14:42:00,
2013-06-11 07:47:00,53.1,30.0,-100.00,West,279,3.6,10.5,41,0.00,,,0.00,VWS V14.01,2013-06-11 14:47:00,
2013-06-11 07:52:00,53.6,29.9,-100.00,West,263,8.3,10.5,40,0.00,,,0.00,VWS V14.01,2013-06-11 14:52:00,
2013-06-11 07:57:00,54.0,30.2,-100.00,West,280,7.6,10.5,40,0.00,,,0.00,VWS V14.01,2013-06-11 14:57:00,
2013-06-11 08:02:00,54.3,29.9,-100.00,West,262,6.3,8.1,39,0.00,,,0.00,VWS V14.01,2013-06-11 15:02:00,
2013-06-11 08:07:00,54.5,30.1,-100.00,SW,227,7.2,13.2,39,0.00,,,0.00,VWS V14.01,2013-06-11 15:07:00,
2013-06-11 08:12:00,55.4,30.2,-100.00,NW,314,4.9,13.2,38,0.00,,,0.00,VWS V14.01,2013-06-11 15:12:00,
2013-06-11 08:17:00,55.6,30.4,-100.00,WNW,289,5.4,13.2,38,0.00,,,0.00,VWS V14.01,2013-06-11 15:17:00,
2013-06-11 08:22:00,55.4,30.2,-100.00,NW,318,5.8,13.2,38,0.00,,,0.00,VWS V14.01,2013-06-11 15:22:00,
2013-06-11 08:27:00,55.8,29.9,-100.00,SSW,210,8.7,13.2,37,0.00,,,0.00,VWS V14.01,2013-06-11 15:27:00,
2013-06-11 08:32:00,55.8,29.9,-100.00,WNW,292,6.3,13.2,37,0.00,,,0.00,VWS V14.01,2013-06-11 15:32:00,
2013-06-11 08:37:00,56.8,30.2,-100.00,SW,217,3.6,13.2,36,0.00,,,0.00,VWS V14.01,2013-06-11 15:37:00,
2013-06-11 08:42:00,56.7,30.0,-100.00,West,281,5.8,13.2,36,0.00,,,0.00,VWS V14.01,2013-06-11 15:42:00,
2013-06-11 08:47:00,56.7,30.0,-100.00,SW,235,8.1,13.2,36,0.00,,,0.00,VWS V14.01,2013-06-11 15:47:00,
2013-06-11 08:52:00,56.7,30.0,-100.00,WSW,258,10.5,13.2,36,0.00,,,0.00,VWS V14.01,2013-06-11 15:52:00,
2013-06-11 08:57:00,56.5,29.9,-100.00,SW,215,4.0,13.2,36,0.00,,,0.00,VWS V14.01,2013-06-11 15:57:00,
2013-06-11 09:02:00,56.7,30.0,-100.00,NW,324,5.8,8.3,36,0.00,,,0.00,VWS V14.01,2013-06-11 16:02:00,
2013-06-11 09:07:00,56.7,30.0,-100.00,West,279,5.8,13.2,36,0.00,,,0.00,VWS V14.01,2013-06-11 16:07:00,
2013-06-11 09:12:00,56.8,30.2,-100.00,West,260,6.7,15.0,36,0.00,,,0.00,VWS V14.01,2013-06-11 16:12:00,
2013-06-11 09:17:00,57.0,30.4,-100.00,ESE,122,4.9,15.0,36,0.00,,,0.00,VWS V14.01,2013-06-11 16:17:00,
2013-06-11 09:22:00,56.8,30.2,-100.00,WSW,241,3.1,15.0,36,0.00,,,0.00,VWS V14.01,2013-06-11 16:22:00,
2013-06-11 09:27:00,57.4,30.0,-100.00,NNW,334,7.6,15.0,35,0.00,,,0.00,VWS V14.01,2013-06-11 16:27:00,
2013-06-11 09:32:00,57.2,29.8,-100.00,South,186,4.0,15.0,35,0.00,,,0.00,VWS V14.01,2013-06-11 16:32:00,
2013-06-11 09:37:00,57.0,29.7,-100.00,SW,219,8.1,15.0,35,0.00,,,0.00,VWS V14.01,2013-06-11 16:37:00,
2013-06-11 09:42:00,57.4,30.0,-100.00,WSW,246,5.4,15.0,35,0.00,,,0.00,VWS V14.01,2013-06-11 16:42:00,
2013-06-11 09:47:00,57.9,30.5,-100.00,NW,308,6.3,15.0,35,0.00,,,0.00,VWS V14.01,2013-06-11 16:47:00,
2013-06-11 09:52:00,57.7,30.3,-100.00,NW,322,5.8,15.0,35,0.00,,,0.00,VWS V14.01,2013-06-11 16:52:00,
2013-06-11 09:57:00,57.7,30.3,-100.00,WSW,254,6.3,15.0,35,0.00,,,0.00,VWS V14.01,2013-06-11 16:57:00,
2013-06-11 10:02:00,57.9,30.5,-100.00,West,261,5.4,6.7,35,0.00,,,0.00,VWS V14.01,2013-06-11 17:02:00,
2013-06-11 10:07:00,58.3,30.1,-100.00,WNW,287,4.0,10.5,34,0.00,,,0.00,VWS V14.01,2013-06-11 17:07:00,
2013-06-11 10:12:00,58.6,30.4,-100.00,NW,313,6.3,10.5,34,0.00,,,0.00,VWS V14.01,2013-06-11 17:12:00,
2013-06-11 10:17:00,58.8,30.5,-100.00,WNW,290,7.6,10.5,34,0.00,,,0.00,VWS V14.01,2013-06-11 17:17:00,
2013-06-11 10:22:00,59.0,30.7,-100.00,WSW,241,4.0,10.5,34,0.00,,,0.00,VWS V14.01,2013-06-11 17:22:00,
2013-06-11 10:27:00,59.4,31.0,-100.00,WSW,253,7.6,10.5,34,0.00,,,0.00,VWS V14.01,2013-06-11 17:27:00,
2013-06-11 10:32:00,60.1,31.6,-100.00,WSW,258,5.8,10.5,34,0.00,,,0.00,VWS V14.01,2013-06-11 17:32:00,
2013-06-11 10:37:00,60.1,30.9,-100.00,SSW,201,5.4,10.5,33,0.00,,,0.00,VWS V14.01,2013-06-11 17:37:00,
2013-06-11 10:42:00,60.8,30.8,-100.00,NNW,336,3.6,11.0,32,0.00,,,0.00,VWS V14.01,2013-06-11 17:42:00,
2013-06-11 10:47:00,60.6,31.4,-100.00,WSW,237,10.5,11.0,33,0.00,,,0.00,VWS V14.01,2013-06-11 17:47:00,
2013-06-11 10:52:00,60.8,30.0,-100.00,ESE,116,2.7,11.0,31,0.00,,,0.00,VWS V14.01,2013-06-11 17:52:00,
2013-06-11 10:57:00,60.6,30.6,-100.00,WSW,249,6.3,11.0,32,0.00,,,0.00,VWS V14.01,2013-06-11 17:57:00,
2013-06-11 11:02:00,61.0,30.2,-100.00,NNW,334,4.0,7.6,31,0.00,,,0.00,VWS V14.01,2013-06-11 18:02:00,
2013-06-11 11:07:00,60.8,30.0,-100.00,WNW,287,8.1,8.1,31,0.00,,,0.00,VWS V14.01,2013-06-11 18:07:00,
2013-06-11 11:12:00,61.3,30.5,-100.00,SSE,150,8.1,8.3,31,0.00,,,0.00,VWS V14.01,2013-06-11 18:12:00,
2013-06-11 11:17:00,61.2,29.5,-100.00,WSW,257,3.6,12.8,30,0.00,,,0.00,VWS V14.01,2013-06-11 18:17:00,
2013-06-11 11:22:00,61.5,29.8,-100.00,WNW,294,5.8,12.8,30,0.00,,,0.00,VWS V14.01,2013-06-11 18:22:00,
2013-06-11 11:27:00,61.7,30.8,-100.00,SW,228,5.4,12.8,31,0.00,,,0.00,VWS V14.01,2013-06-11 18:27:00,
2013-06-11 11:32:00,62.6,29.9,-100.00,SW,235,5.8,12.8,29,0.00,,,0.00,VWS V14.01,2013-06-11 18:32:00,
2013-06-11 11:37:00,62.8,29.2,-100.00,WNW,285,4.0,12.8,28,0.00,,,0.00,VWS V14.01,2013-06-11 18:37:00,
2013-06-11 11:42:00,62.1,29.5,-100.00,NNW,332,9.6,12.8,29,0.00,,,0.00,VWS V14.01,2013-06-11 18:42:00,
2013-06-11 11:47:00,61.7,29.1,-100.00,WSW,258,3.6,12.8,29,0.00,,,0.00,VWS V14.01,2013-06-11 18:47:00,
2013-06-11 11:52:00,62.4,29.8,-100.00,WNW,287,4.9,12.8,29,0.00,,,0.00,VWS V14.01,2013-06-11 18:52:00,
2013-06-11 11:57:00,62.8,29.2,-100.00,WSW,238,7.6,12.8,28,0.00,,,0.00,VWS V14.01,2013-06-11 18:57:00,
2013-06-11 12:02:00,63.0,29.4,-100.00,WSW,243,6.3,8.1,28,0.00,,,0.00,VWS V14.01,2013-06-11 19:02:00,
2013-06-11 12:07:00,63.0,28.5,-100.00,North,0,6.3,8.1,27,0.00,,,0.00,VWS V14.01,2013-06-11 19:07:00,
2013-06-11 12:12:00,63.0,29.4,-100.00,West,270,6.3,8.3,28,0.00,,,0.00,VWS V14.01,2013-06-11 19:12:00,
2013-06-11 12:17:00,63.3,28.8,-100.00,West,263,5.4,8.7,27,0.00,,,0.00,VWS V14.01,2013-06-11 19:17:00,
2013-06-11 12:22:00,63.1,28.6,-100.00,ENE,75,5.8,10.5,27,0.00,,,0.00,VWS V14.01,2013-06-11 19:22:00,
2013-06-11 12:27:00,63.5,29.0,-100.00,WSW,246,5.8,10.5,27,0.00,,,0.00,VWS V14.01,2013-06-11 19:27:00,
2013-06-11 12:32:00,63.9,29.3,-100.00,WNW,289,9.6,10.5,27,0.00,,,0.00,VWS V14.01,2013-06-11 19:32:00,
2013-06-11 12:37:00,64.2,29.6,-100.00,SW,236,5.4,10.5,27,0.00,,,0.00,VWS V14.01,2013-06-11 19:37:00,
2013-06-11 12:42:00,64.8,29.1,-100.00,SW,226,5.8,10.5,26,0.00,,,0.00,VWS V14.01,2013-06-11 19:42:00,
2013-06-11 12:47:00,64.9,29.3,-100.00,NW,311,6.7,10.5,26,0.00,,,0.00,VWS V14.01,2013-06-11 19:47:00,
2013-06-11 12:52:00,65.3,30.5,-100.00,SW,232,5.4,10.5,27,0.00,,,0.00,VWS V14.01,2013-06-11 19:52:00,
2013-06-11 12:57:00,65.7,29.9,-100.00,SW,234,3.6,10.5,26,0.00,,,0.00,VWS V14.01,2013-06-11 19:57:00,
2013-06-11 13:02:00,65.5,28.8,-100.00,SSW,211,4.0,8.1,25,0.00,,,0.00,VWS V14.01,2013-06-11 20:02:00,
2013-06-11 13:07:00,66.0,29.2,-100.00,South,180,7.6,8.7,25,0.00,,,0.00,VWS V14.01,2013-06-11 20:07:00,
2013-06-11 13:12:00,66.2,28.4,-100.00,West,277,5.8,8.7,24,0.00,,,0.00,VWS V14.01,2013-06-11 20:12:00,
2013-06-11 13:17:00,66.2,29.4,-100.00,West,271,4.0,8.7,25,0.00,,,0.00,VWS V14.01,2013-06-11 20:17:00,
2013-06-11 13:22:00,66.4,29.5,-100.00,SSW,210,6.3,10.1,25,0.00,,,0.00,VWS V14.01,2013-06-11 20:22:00,
2013-06-11 13:27:00,66.0,29.2,-100.00,WSW,245,4.9,10.5,25,0.00,,,0.00,VWS V14.01,2013-06-11 20:27:00,
2013-06-11 13:32:00,66.0,29.2,-100.00,West,273,11.0,11.0,25,0.00,,,0.00,VWS V14.01,2013-06-11 20:32:00,
2013-06-11 13:37:00,66.2,28.4,-100.00,WNW,285,8.3,11.0,24,0.00,,,0.00,VWS V14.01,2013-06-11 20:37:00,
2013-06-11 13:42:00,66.2,28.4,-100.00,WNW,286,3.6,11.0,24,0.00,,,0.00,VWS V14.01,2013-06-11 20:42:00,
2013-06-11 13:47:00,66.2,28.4,-100.00,WNW,287,4.0,11.0,24,0.00,,,0.00,VWS V14.01,2013-06-11 20:47:00,
2013-06-11 13:52:00,66.6,29.7,-100.00,West,267,7.2,11.0,25,0.00,,,0.00,VWS V14.01,2013-06-11 20:52:00,
2013-06-11 13:57:00,67.1,29.1,-100.00,WSW,256,5.8,11.0,24,0.00,,,0.00,VWS V14.01,2013-06-11 20:57:00,
2013-06-11 14:02:00,67.1,29.1,-100.00,WSW,258,4.9,8.7,24,0.00,,,0.00,VWS V14.01,2013-06-11 21:02:00,
2013-06-11 14:07:00,67.3,30.3,-100.00,South,183,9.6,9.6,25,0.00,,,0.00,VWS V14.01,2013-06-11 21:07:00,
2013-06-11 14:12:00,67.5,29.4,-100.00,West,271,5.8,9.6,24,0.00,,,0.00,VWS V14.01,2013-06-11 21:12:00,
2013-06-11 14:17:00,67.6,30.6,-100.00,WNW,297,4.9,10.5,25,0.00,,,0.00,VWS V14.01,2013-06-11 21:17:00,
2013-06-11 14:22:00,67.8,29.7,-100.00,WSW,257,4.0,10.5,24,0.00,,,0.00,VWS V14.01,2013-06-11 21:22:00,
2013-06-11 14:27:00,67.6,29.6,-100.00,NW,319,5.4,10.5,24,0.00,,,0.00,VWS V14.01,2013-06-11 21:27:00,
2013-06-11 14:32:00,67.5,29.4,-100.00,SW,217,3.1,10.5,24,0.00,,,0.00,VWS V14.01,2013-06-11 21:32:00,
2013-06-11 14:37:00,67.1,29.1,-100.00,WNW,293,5.4,10.5,24,0.00,,,0.00,VWS V14.01,2013-06-11 21:37:00,
2013-06-11 14:42:00,68.0,29.9,-100.00,South,185,8.3,10.5,24,0.00,,,0.00,VWS V14.01,2013-06-11 21:42:00,
2013-06-11 14:47:00,68.4,30.2,-100.00,SW,232,6.3,10.5,24,0.00,,,0.00,VWS V14.01,2013-06-11 21:47:00,
2013-06-11 14:52:00,68.2,29.0,-100.00,WSW,246,6.3,10.5,23,0.00,,,0.00,VWS V14.01,2013-06-11 21:52:00,
2013-06-11 14:57:00,67.5,29.4,-100.00,SW,215,8.3,10.5,24,0.00,,,0.00,VWS V14.01,2013-06-11 21:57:00,
2013-06-11 15:02:00,67.8,29.7,-100.00,West,265,2.7,7.6,24,0.00,,,0.00,VWS V14.01,2013-06-11 22:02:00,
2013-06-11 15:07:00,67.3,29.3,-100.00,SW,231,6.3,8.1,24,0.00,,,0.00,VWS V14.01,2013-06-11 22:07:00,
2013-06-11 15:12:00,68.2,30.0,-100.00,WSW,245,3.6,8.1,24,0.00,,,0.00,VWS V14.01,2013-06-11 22:12:00,
2013-06-11 15:17:00,68.4,30.2,-100.00,West,272,5.4,10.5,24,0.00,,,0.00,VWS V14.01,2013-06-11 22:17:00,
2013-06-11 15:22:00,68.5,30.4,-100.00,WNW,284,4.0,10.5,24,0.00,,,0.00,VWS V14.01,2013-06-11 22:22:00,
2013-06-11 15:27:00,68.4,30.2,-100.00,SSW,205,6.3,12.3,24,0.00,,,0.00,VWS V14.01,2013-06-11 22:27:00,
2013-06-11 15:32:00,68.5,30.4,-100.00,SSW,205,4.9,12.3,24,0.00,,,0.00,VWS V14.01,2013-06-11 22:32:00,
2013-06-11 15:37:00,68.4,30.2,-100.00,West,262,3.1,12.3,24,0.00,,,0.00,VWS V14.01,2013-06-11 22:37:00,
2013-06-11 15:42:00,68.5,30.4,-100.00,WSW,248,2.7,12.3,24,0.00,,,0.00,VWS V14.01,2013-06-11 22:42:00,
2013-06-11 15:47:00,68.7,29.5,-100.00,NNW,334,3.1,12.3,23,0.00,,,0.00,VWS V14.01,2013-06-11 22:47:00,
2013-06-11 15:52:00,68.4,29.1,-100.00,SW,227,5.4,12.3,23,0.00,,,0.00,VWS V14.01,2013-06-11 22:52:00,
2013-06-11 15:57:00,68.5,29.3,-100.00,WSW,242,3.6,12.3,23,0.00,,,0.00,VWS V14.01,2013-06-11 22:57:00,
2013-06-11 16:02:00,68.4,29.1,-100.00,West,280,4.0,5.4,23,0.00,,,0.00,VWS V14.01,2013-06-11 23:02:00,
2013-06-11 16:07:00,68.7,29.5,-100.00,NNW,341,5.8,7.6,23,0.00,,,0.00,VWS V14.01,2013-06-11 23:07:00,
2013-06-11 16:12:00,67.8,29.7,-100.00,West,275,3.1,7.6,24,0.00,,,0.00,VWS V14.01,2013-06-11 23:12:00,
2013-06-11 16:17:00,67.3,29.3,-100.00,NNW,328,5.4,8.7,24,0.00,,,0.00,VWS V14.01,2013-06-11 23:17:00,
2013-06-11 16:22:00,66.7,28.8,-100.00,SW,232,5.4,8.7,24,0.00,,,0.00,VWS V14.01,2013-06-11 23:22:00,
2013-06-11 16:27:00,66.6,28.7,-100.00,NNW,327,4.9,8.7,24,0.00,,,0.00,VWS V14.01,2013-06-11 23:27:00,
2013-06-11 16:32:00,66.6,28.7,-100.00,West,280,3.6,8.7,24,0.00,,,0.00,VWS V14.01,2013-06-11 23:32:00,
2013-06-11 16:37:00,66.6,28.7,-100.00,NW,320,3.6,8.7,24,0.00,,,0.00,VWS V14.01,2013-06-11 23:37:00,
2013-06-11 16:42:00,66.9,29.0,-100.00,WNW,299,3.1,8.7,24,0.00,,,0.00,VWS V14.01,2013-06-11 23:42:00,
2013-06-11 16:47:00,66.4,28.5,-100.00,WSW,244,0.0,8.7,24,0.00,,,0.00,VWS V14.01,2013-06-11 23:47:00,
2013-06-11 16:52:00,67.1,29.1,-100.00,WNW,303,4.0,8.7,24,0.00,,,0.00,VWS V14.01,2013-06-11 23:52:00,
2013-06-11 16:57:00,67.1,29.1,-100.00,SSW,206,2.2,8.7,24,0.00,,,0.00,VWS V14.01,2013-06-11 23:57:00,
2013-06-11 17:02:00,66.9,29.0,-100.00,WNW,287,4.9,6.3,24,0.00,,,0.00,VWS V14.01,2013-06-12 00:02:00,
2013-06-11 17:07:00,66.7,28.8,-100.00,WSW,242,3.6,6.3,24,0.00,,,0.00,VWS V14.01,2013-06-12 00:07:00,
2013-06-11 17:12:00,66.6,28.7,-100.00,WSW,240,6.3,8.1,24,0.00,,,0.00,VWS V14.01,2013-06-12 00:12:00,
2013-06-11 17:17:00,66.7,28.8,-100.00,SW,221,3.1,8.1,24,0.00,,,0.00,VWS V14.01,2013-06-12 00:17:00,
2013-06-11 17:22:00,66.7,28.8,-100.00,NW,308,5.8,8.3,24,0.00,,,0.00,VWS V14.01,2013-06-12 00:22:00,
2013-06-11 17:27:00,66.9,29.0,-100.00,NNW,329,3.6,9.6,24,0.00,,,0.00,VWS V14.01,2013-06-12 00:27:00,
2013-06-11 17:32:00,66.6,28.7,-100.00,WNW,286,3.6,9.6,24,0.00,,,0.00,VWS V14.01,2013-06-12 00:32:00,
2013-06-11 17:37:00,66.2,28.4,-100.00,SW,223,6.3,9.6,24,0.00,,,0.00,VWS V14.01,2013-06-12 00:37:00,
2013-06-11 17:42:00,66.2,28.4,-100.00,WSW,257,2.7,9.6,24,0.00,,,0.00,VWS V14.01,2013-06-12 00:42:00,
2013-06-11 17:47:00,66.2,28.4,-100.00,SW,236,2.7,9.6,24,0.00,,,0.00,VWS V14.01,2013-06-12 00:47:00,
2013-06-11 17:52:00,65.8,29.1,-100.00,WSW,247,5.8,9.6,25,0.00,,,0.00,VWS V14.01,2013-06-12 00:52:00,
2013-06-11 17:57:00,65.3,28.6,-100.00,SW,214,5.4,9.6,25,0.00,,,0.00,VWS V14.01,2013-06-12 00:57:00,
2013-06-11 18:02:00,65.3,28.6,-100.00,SSW,193,6.3,6.3,25,0.00,,,0.00,VWS V14.01,2013-06-12 01:02:00,
2013-06-11 18:07:00,64.8,28.1,-100.00,WNW,297,5.4,8.7,25,0.00,,,0.00,VWS V14.01,2013-06-12 01:07:00,
2013-06-11 18:12:00,63.3,26.9,-100.00,NNW,332,3.1,8.7,25,0.00,,,0.00,VWS V14.01,2013-06-12 01:12:00,
2013-06-11 18:17:00,62.6,27.3,-100.00,SW,225,3.6,10.5,26,0.00,,,0.00,VWS V14.01,2013-06-12 01:17:00,
2013-06-11 18:22:00,62.8,27.4,-100.00,WSW,248,8.3,11.0,26,0.00,,,0.00,VWS V14.01,2013-06-12 01:22:00,
2013-06-11 18:27:00,62.2,27.0,-100.00,WSW,241,8.1,11.0,26,0.00,,,0.00,VWS V14.01,2013-06-12 01:27:00,
2013-06-11 18:32:00,61.9,26.6,-100.00,SW,229,3.1,11.0,26,0.00,,,0.00,VWS V14.01,2013-06-12 01:32:00,
2013-06-11 18:37:00,61.7,26.5,-100.00,WSW,245,3.6,11.0,26,0.00,,,0.00,VWS V14.01,2013-06-12 01:37:00,
2013-06-11 18:42:00,61.2,26.0,-100.00,South,189,2.7,11.0,26,0.00,,,0.00,VWS V14.01,2013-06-12 01:42:00,
2013-06-11 18:47:00,61.0,25.9,-100.00,West,260,7.6,11.0,26,0.00,,,0.00,VWS V14.01,2013-06-12 01:47:00,
2013-06-11 18:52:00,60.6,26.5,-100.00,WNW,290,7.6,11.0,27,0.00,,,0.00,VWS V14.01,2013-06-12 01:52:00,
2013-06-11 18:57:00,60.3,26.2,-100.00,NW,310,5.8,11.0,27,0.00,,,0.00,VWS V14.01,2013-06-12 01:57:00,
2013-06-11 19:02:00,59.9,25.9,-100.00,West,265,4.0,10.1,27,0.00,,,0.00,VWS V14.01,2013-06-12 02:02:00,
2013-06-11 19:07:00,59.7,25.7,-100.00,West,270,5.4,11.0,27,0.00,,,0.00,VWS V14.01,2013-06-12 02:07:00,
2013-06-11 19:12:00,59.4,25.4,-100.00,South,183,3.6,11.0,27,0.00,,,0.00,VWS V14.01,2013-06-12 02:12:00,
2013-06-11 19:17:00,59.4,25.4,-100.00,NW,306,5.8,11.0,27,0.00,,,0.00,VWS V14.01,2013-06-12 02:17:00,
2013-06-11 19:22:00,58.8,25.8,-100.00,NW,320,5.4,11.4,28,0.00,,,0.00,VWS V14.01,2013-06-12 02:22:00,
2013-06-11 19:27:00,58.3,25.3,-100.00,WSW,247,7.6,11.4,28,0.00,,,0.00,VWS V14.01,2013-06-12 02:27:00,
2013-06-11 19:32:00,57.6,24.7,-100.00,SW,228,3.1,11.4,28,0.00,,,0.00,VWS V14.01,2013-06-12 02:32:00,
2013-06-11 19:37:00,57.4,25.4,-100.00,WNW,282,6.3,11.4,29,0.00,,,0.00,VWS V14.01,2013-06-12 02:37:00,
2013-06-11 19:42:00,57.2,25.2,-100.00,SW,220,5.4,11.4,29,0.00,,,0.00,VWS V14.01,2013-06-12 02:42:00,
2013-06-11 19:47:00,56.7,24.8,-100.00,West,281,4.9,11.4,29,0.00,,,0.00,VWS V14.01,2013-06-12 02:47:00,
2013-06-11 19:52:00,56.3,25.3,-100.00,NW,308,5.8,11.9,30,0.00,,,0.00,VWS V14.01,2013-06-12 02:52:00,
2013-06-11 19:57:00,55.9,25.8,-100.00,SW,219,4.0,11.9,31,0.00,,,0.00,VWS V14.01,2013-06-12 02:57:00,
2013-06-11 20:02:00,55.8,26.4,-100.00,West,261,6.3,10.1,32,0.00,,,0.00,VWS V14.01,2013-06-12 03:02:00,
2013-06-11 20:07:00,55.4,26.0,-100.00,WSW,254,2.7,10.1,32,0.00,,,0.00,VWS V14.01,2013-06-12 03:07:00,
2013-06-11 20:12:00,55.2,27.4,-100.00,West,272,5.8,10.1,34,0.00,,,0.00,VWS V14.01,2013-06-12 03:12:00,
2013-06-11 20:17:00,54.9,27.8,-100.00,SSW,201,5.4,10.1,35,0.00,,,0.00,VWS V14.01,2013-06-12 03:17:00,
2013-06-11 20:22:00,54.5,27.4,-100.00,West,271,3.1,10.1,35,0.00,,,0.00,VWS V14.01,2013-06-12 03:22:00,
2013-06-11 20:27:00,54.1,27.1,-100.00,SW,224,5.4,10.1,35,0.00,,,0.00,VWS V14.01,2013-06-12 03:27:00,
2013-06-11 20:32:00,54.0,27.6,-100.00,South,187,2.7,10.1,36,0.00,,,0.00,VWS V14.01,2013-06-12 03:32:00,
2013-06-11 20:37:00,53.4,27.8,-100.00,WNW,294,3.1,10.1,37,0.00,,,0.00,VWS V14.01,2013-06-12 03:37:00,
2013-06-11 20:42:00,53.2,27.7,-100.00,WSW,244,0.0,10.1,37,0.00,,,0.00,VWS V14.01,2013-06-12 03:42:00,
2013-06-11 20:47:00,53.1,27.5,-100.00,SW,216,3.1,10.1,37,0.00,,,0.00,VWS V14.01,2013-06-12 03:47:00,
2013-06-11 20:52:00,52.7,27.8,-100.00,SSW,197,0.0,10.1,38,0.00,,,0.00,VWS V14.01,2013-06-12 03:52:00,
2013-06-11 20:57:00,52.3,27.5,-100.00,SW,231,0.0,10.1,38,0.00,,,0.00,VWS V14.01,2013-06-12 03:57:00,
2013-06-11 21:01:00,52.2,27.3,-100.00,West,266,0.0,3.1,38,0.00,,,0.00,VWS V14.01,2013-06-12 04:01:00,
2013-06-11 21:06:00,51.8,27.6,-100.00,WNW,288,3.6,4.9,39,0.00,,,0.00,VWS V14.01,2013-06-12 04:06:00,
2013-06-11 21:11:00,51.6,28.1,-100.00,WNW,299,2.7,4.9,40,0.00,,,0.00,VWS V14.01,2013-06-12 04:11:00,
2013-06-11 21:16:00,51.4,27.9,-100.00,WSW,247,0.0,4.9,40,0.00,,,0.00,VWS V14.01,2013-06-12 04:16:00,
2013-06-11 21:21:00,51.1,28.2,-100.00,WSW,247,0.0,4.9,41,0.00,,,0.00,VWS V14.01,2013-06-12 04:21:00,
2013-06-11 21:26:00,50.7,27.9,-100.00,WSW,247,0.0,4.9,41,0.00,,,0.00,VWS V14.01,2013-06-12 04:26:00,
2013-06-11 21:31:00,50.4,28.2,-100.00,WSW,247,0.0,4.9,42,0.00,,,0.00,VWS V14.01,2013-06-12 04:31:00,
2013-06-11 21:36:00,50.0,27.8,-100.00,WSW,247,0.0,4.9,42,0.00,,,0.00,VWS V14.01,2013-06-12 04:36:00,
2013-06-11 21:41:00,49.8,28.2,-100.00,WSW,242,0.0,4.9,43,0.00,,,0.00,VWS V14.01,2013-06-12 04:41:00,
2013-06-11 21:46:00,49.5,27.9,-100.00,WSW,242,0.0,4.9,43,0.00,,,0.00,VWS V14.01,2013-06-12 04:46:00,
2013-06-11 21:51:00,49.3,28.3,-100.00,WSW,242,0.0,4.9,44,0.00,,,0.00,VWS V14.01,2013-06-12 04:51:00,
2013-06-11 21:56:00,49.1,28.1,-100.00,WSW,242,0.0,4.9,44,0.00,,,0.00,VWS V14.01,2013-06-12 04:56:00,
2013-06-11 22:01:00,48.7,27.8,-100.00,WSW,242,0.0,0.0,44,0.00,,,0.00,VWS V14.01,2013-06-12 05:01:00,
2013-06-11 22:07:00,48.2,27.3,-100.00,WSW,242,0.0,0.0,44,0.00,,,0.00,VWS V14.01,2013-06-12 05:07:00,
2013-06-11 22:12:00,47.8,29.1,-100.00,WSW,242,0.0,0.0,48,0.00,,,0.00,VWS V14.01,2013-06-12 05:12:00,
2013-06-11 22:17:00,47.3,28.1,-100.00,WSW,242,0.0,0.0,47,0.00,,,0.00,VWS V14.01,2013-06-12 05:17:00,
2013-06-11 22:22:00,46.9,28.3,-100.00,WSW,242,0.0,0.0,48,0.00,,,0.00,VWS V14.01,2013-06-12 05:22:00,
2013-06-11 22:27:00,46.6,28.5,-100.00,WSW,242,0.0,0.0,49,0.00,,,0.00,VWS V14.01,2013-06-12 05:27:00,
2013-06-11 22:32:00,46.2,28.1,-100.00,WSW,242,0.0,0.0,49,0.00,,,0.00,VWS V14.01,2013-06-12 05:32:00,
2013-06-11 22:37:00,46.0,28.0,-100.00,WSW,242,0.0,0.0,49,0.00,,,0.00,VWS V14.01,2013-06-12 05:37:00,
2013-06-11 22:42:00,45.7,28.6,-100.00,WSW,242,0.0,0.0,51,0.00,,,0.00,VWS V14.01,2013-06-12 05:42:00,
2013-06-11 22:47:00,45.7,28.6,-100.00,WSW,242,0.0,0.0,51,0.00,,,0.00,VWS V14.01,2013-06-12 05:47:00,
2013-06-11 22:52:00,45.7,28.1,-100.00,WSW,242,0.0,0.0,50,0.00,,,0.00,VWS V14.01,2013-06-12 05:52:00,
2013-06-11 22:57:00,45.7,28.1,-100.00,WSW,242,0.0,0.0,50,0.00,,,0.00,VWS V14.01,2013-06-12 05:57:00,
2013-06-11 23:02:00,45.5,28.4,-100.00,WSW,242,0.0,0.0,51,0.00,,,0.00,VWS V14.01,2013-06-12 06:02:00,
2013-06-11 23:07:00,45.1,27.6,-100.00,WSW,242,0.0,0.0,50,0.00,,,0.00,VWS V14.01,2013-06-12 06:07:00,
2013-06-11 23:12:00,45.0,27.5,-100.00,WSW,242,0.0,0.0,50,0.00,,,0.00,VWS V14.01,2013-06-12 06:12:00,
2013-06-11 23:17:00,44.8,27.3,-100.00,WSW,242,0.0,0.0,50,0.00,,,0.00,VWS V14.01,2013-06-12 06:17:00,
2013-06-11 23:22:00,45.0,27.9,-100.00,WSW,242,0.0,0.0,51,0.00,,,0.00,VWS V14.01,2013-06-12 06:22:00,
2013-06-11 23:27:00,44.8,27.8,-100.00,WSW,242,0.0,0.0,51,0.00,,,0.00,VWS V14.01,2013-06-12 06:27:00,
2013-06-11 23:32:00,44.6,28.1,-100.00,WSW,242,0.0,0.0,52,0.00,,,0.00,VWS V14.01,2013-06-12 06:32:00,
2013-06-11 23:37:00,44.2,27.7,-100.00,WSW,242,0.0,0.0,52,0.00,,,0.00,VWS V14.01,2013-06-12 06:37:00,
2013-06-11 23:42:00,43.9,27.9,-100.00,WSW,242,0.0,0.0,53,0.00,,,0.00,VWS V14.01,2013-06-12 06:42:00,
2013-06-11 23:47:00,43.5,28.0,-100.00,WSW,242,0.0,0.0,54,0.00,,,0.00,VWS V14.01,2013-06-12 06:47:00,
2013-06-11 23:52:00,43.3,27.8,-100.00,WSW,242,0.0,0.0,54,0.00,,,0.00,VWS V14.01,2013-06-12 06:52:00,
2013-06-11 23:57:00,43.3,27.8,-100.00,WSW,242,0.0,0.0,54,0.00,,,0.00,VWS V14.01,2013-06-12 06:57:00,